timestamp,surface_pressure_avg,surface_temp_avg,battery_voltage,lat,long
2023-11-03 00:09:00+00:00,282.1064,10.1,11.06,47.84626,-54.09684
2023-11-03 00:19:01+00:00,287.7496,9.9,11.06,47.84626,-54.09684
2023-11-03 00:29:01+00:00,285.0531,9.8,11.06,47.84626,-54.09684
2023-11-03 00:39:01+00:00,292.263,9.89,11.06,47.84626,-54.09684
2023-11-03 00:49:01+00:00,300.1846,9.9,11.06,47.84626,-54.09684
2023-11-03 00:59:01+00:00,299.7214,9.9,11.06,47.84626,-54.09684
2023-11-03 01:09:01+00:00,301.0197,9.9,11.06,47.84626,-54.09684
2023-11-03 01:19:00+00:00,319.8997,10.03,11.06,47.84626,-54.09684
2023-11-03 01:29:00+00:00,331.8631,10.2,11.06,47.84626,-54.09684
2023-11-03 01:39:00+00:00,330.9163,10.1,11.06,47.84626,-54.09684
2023-11-03 01:49:00+00:00,336.6146,10.13,11.06,47.84626,-54.09684
2023-11-03 01:59:00+00:00,345.8631,10.23,11.06,47.84626,-54.09684
2023-11-03 02:09:00+00:00,342.1146,10.19,11.06,47.84626,-54.09684
2023-11-03 02:19:00+00:00,335.9913,9.86,11.06,47.84626,-54.09684
2023-11-03 02:29:00+00:00,342.61300000000006,10.0,11.06,47.84626,-54.09684
2023-11-03 02:39:00+00:00,345.1947,10.2,11.06,47.84626,-54.09684
2023-11-03 02:49:00+00:00,338.408,10.0,11.06,47.84626,-54.09684
2023-11-03 02:59:00+00:00,340.1912,9.9,11.06,47.84626,-54.09684
2023-11-03 03:09:00+00:00,343.0114,9.95,11.06,47.84626,-54.09684
2023-11-03 03:19:00+00:00,340.9813,10.23,11.06,47.84626,-54.09684
2023-11-03 03:29:00+00:00,333.6329,10.04,11.06,47.84626,-54.09684
2023-11-03 03:39:00+00:00,334.4647,9.9,11.06,47.84626,-54.09684
2023-11-03 03:49:00+00:00,338.1379,10.18,11.06,47.84626,-54.09684
2023-11-03 03:59:00+00:00,331.9563,10.0,11.06,47.84626,-54.09684
2023-11-03 04:09:00+00:00,329.80300000000005,9.9,11.06,47.84626,-54.09684
2023-11-03 04:19:00+00:00,329.7512,9.96,11.06,47.84626,-54.09684
2023-11-03 04:29:00+00:00,331.0097,10.1,11.06,47.84626,-54.09684
2023-11-03 04:39:00+00:00,327.4713,10.0,11.06,47.84626,-54.09684
2023-11-03 04:49:00+00:00,325.7329,9.9,11.06,47.84626,-54.09684
2023-11-03 04:59:00+00:00,325.4146,9.8,11.06,47.84626,-54.09684
2023-11-03 05:09:00+00:00,322.9814,9.7,11.06,47.84626,-54.09684
2023-11-03 05:19:00+00:00,315.6979,9.81,11.06,47.84626,-54.09684
2023-11-03 05:29:00+00:00,307.2396,10.0,11.06,47.84626,-54.09684
2023-11-03 05:39:00+00:00,301.7463,9.9,11.06,47.84626,-54.09684
2023-11-03 05:49:00+00:00,297.4714,9.8,11.06,47.84626,-54.09684
2023-11-03 05:59:00+00:00,290.8214,9.7,11.06,47.84626,-54.09684
2023-11-03 06:09:00+00:00,282.6297,9.33,11.06,47.84626,-54.09684
2023-11-03 06:19:00+00:00,278.5947,9.24,11.06,47.84626,-54.09684
2023-11-03 06:29:00+00:00,270.2114,9.3,11.06,47.84626,-54.09684
2023-11-03 06:39:00+00:00,260.5764,9.3,11.06,47.84626,-54.09684
2023-11-03 06:49:00+00:00,252.8064,9.38,11.06,47.84626,-54.09684
2023-11-03 06:59:00+00:00,248.058,9.4,11.06,47.84626,-54.09684
2023-11-03 07:09:00+00:00,242.0648,9.5,11.06,47.84626,-54.09684
2023-11-03 07:19:00+00:00,236.0798,9.58,11.06,47.84626,-54.09684
2023-11-03 07:29:00+00:00,230.7831,9.59,11.06,47.84626,-54.09684
2023-11-03 07:39:00+00:00,229.0731,9.56,11.06,47.84626,-54.09684
2023-11-03 07:49:00+00:00,227.3097,9.5,11.06,47.84626,-54.09684
2023-11-03 07:59:00+00:00,226.2898,9.5,11.06,47.84626,-54.09684
2023-11-03 08:09:00+00:00,225.9281,9.5,11.06,47.84626,-54.09684
2023-11-03 08:19:00+00:00,224.4414,9.5,11.06,47.84626,-54.09684
2023-11-03 08:29:00+00:00,221.7515,9.56,11.06,47.84626,-54.09684
2023-11-03 08:39:00+00:00,220.2447,9.6,11.06,47.84626,-54.09684
2023-11-03 08:49:00+00:00,222.4664,9.66,11.06,47.84626,-54.09684
2023-11-03 08:59:00+00:00,224.0731,9.71,11.06,47.84626,-54.09684
2023-11-03 09:09:00+00:00,222.4348,9.79,11.06,47.84626,-54.09684
2023-11-03 09:19:00+00:00,223.8297,9.8,11.06,47.84626,-54.09684
2023-11-03 09:29:00+00:00,231.0898,9.8,11.06,47.84626,-54.09684
2023-11-03 09:39:00+00:00,234.3548,9.8,11.06,47.84626,-54.09684
2023-11-03 09:49:00+00:00,234.6214,9.89,11.06,47.84626,-54.09684
2023-11-03 09:59:00+00:00,235.8381,9.9,11.06,47.84626,-54.09684
2023-11-03 10:09:00+00:00,241.1297,9.9,11.06,47.84626,-54.09684
2023-11-03 10:19:00+00:00,247.4197,9.9,11.06,47.84626,-54.09684
2023-11-03 10:29:00+00:00,250.2014,9.93,11.06,47.84626,-54.09684
2023-11-03 10:39:00+00:00,250.9981,9.99,11.06,47.84626,-54.09684
2023-11-03 10:49:00+00:00,253.6214,10.0,11.06,47.84626,-54.09684
2023-11-03 10:59:00+00:00,257.6397,10.0,11.06,47.84626,-54.09684
2023-11-03 11:09:00+00:00,260.3781,10.0,11.06,47.84626,-54.09684
2023-11-03 11:19:00+00:00,262.7848,10.0,11.3,47.84626,-54.09684
2023-11-03 11:29:00+00:00,264.743,10.0,11.3,47.84626,-54.09684
2023-11-03 11:39:00+00:00,266.2631,10.0,11.3,47.84626,-54.09684
2023-11-03 11:49:00+00:00,264.4847,10.0,11.3,47.84626,-54.09684
2023-11-03 11:59:00+00:00,263.6697,10.07,11.3,47.84626,-54.09684
2023-11-03 12:09:00+00:00,268.0614,10.1,11.3,47.84626,-54.09684
2023-11-03 12:19:00+00:00,271.5314,10.0,11.7,47.84626,-54.09684
2023-11-03 12:29:00+00:00,270.5497,9.99,11.7,47.84626,-54.09684
2023-11-03 12:39:00+00:00,272.4381,9.9,11.7,47.84626,-54.09684
2023-11-03 12:49:00+00:00,282.3698,9.88,11.7,47.84626,-54.09684
2023-11-03 12:59:00+00:00,289.5547,9.8,11.7,47.84626,-54.09684
2023-11-03 13:09:00+00:00,290.0464,9.8,11.7,47.84626,-54.09684
2023-11-03 13:19:00+00:00,295.613,9.84,11.3,47.84626,-54.09684
2023-11-03 13:29:00+00:00,306.063,9.89,11.3,47.84626,-54.09684
2023-11-03 13:39:00+00:00,310.5598,9.8,11.3,47.84626,-54.09684
2023-11-03 13:49:00+00:00,315.9597,9.8,11.3,47.84626,-54.09684
2023-11-03 13:59:00+00:00,327.7764,9.9,11.3,47.84626,-54.09684
2023-11-03 14:09:00+00:00,332.9980000000001,9.9,11.3,47.84626,-54.09684
2023-11-03 14:19:00+00:00,335.1746,9.9,11.22,47.84626,-54.09684
2023-11-03 14:29:00+00:00,343.3896,9.8,11.22,47.84626,-54.09684
2023-11-03 14:39:00+00:00,349.2629,9.64,11.22,47.84626,-54.09684
2023-11-03 14:49:00+00:00,344.74300000000005,9.6,11.22,47.84626,-54.09684
2023-11-03 14:59:00+00:00,341.5863,9.6,11.22,47.84626,-54.09684
2023-11-03 15:09:00+00:00,344.9963,9.7,11.22,47.84626,-54.09684
2023-11-03 15:19:00+00:00,343.7313,9.7,11.22,47.84626,-54.09684
2023-11-03 15:29:00+00:00,336.3313,9.8,11.22,47.84626,-54.09684
2023-11-03 15:39:00+00:00,338.4396,10.03,11.22,47.84626,-54.09684
2023-11-03 15:49:00+00:00,343.7145,10.18,11.22,47.84626,-54.09684
2023-11-03 15:59:00+00:00,339.9246,10.19,11.22,47.84626,-54.09684
2023-11-03 16:09:00+00:00,338.9664,10.2,11.22,47.84626,-54.09684
2023-11-03 16:19:00+00:00,344.0297,10.2,11.22,47.84626,-54.09684
2023-11-03 16:29:00+00:00,341.3629,10.2,11.22,47.84626,-54.09684
2023-11-03 16:39:00+00:00,335.0914,10.16,11.22,47.84626,-54.09684
2023-11-03 16:49:00+00:00,337.3063,10.19,11.22,47.84626,-54.09684
2023-11-03 16:59:00+00:00,339.9514,10.2,11.22,47.84626,-54.09684
2023-11-03 17:09:00+00:00,333.0428,10.2,11.22,47.84626,-54.09684
2023-11-03 17:19:00+00:00,328.4113,10.18,11.14,47.84626,-54.09684
2023-11-03 17:29:00+00:00,330.4214,10.15,11.14,47.84626,-54.09684
2023-11-03 17:39:00+00:00,325.6197,10.1,11.14,47.84626,-54.09684
2023-11-03 17:49:00+00:00,311.383,10.1,11.14,47.84626,-54.09684
2023-11-03 17:59:00+00:00,304.95799999999997,10.1,11.14,47.84626,-54.09684
2023-11-03 18:09:00+00:00,302.4464,10.1,11.14,47.84626,-54.09684
2023-11-03 18:19:00+00:00,292.6863,10.1,11.14,47.84626,-54.09684
2023-11-03 18:29:00+00:00,277.9481,10.1,11.14,47.84626,-54.09684
2023-11-03 18:39:00+00:00,271.8214,10.1,11.14,47.84626,-54.09684
2023-11-03 18:49:00+00:00,266.6231,10.1,11.14,47.84626,-54.09684
2023-11-03 18:59:00+00:00,257.2231,10.1,11.14,47.84626,-54.09684
2023-11-03 19:09:00+00:00,247.8265,10.1,11.14,47.84626,-54.09684
2023-11-03 19:19:01+00:00,244.4181,10.1,11.14,47.84626,-54.09684
2023-11-03 19:29:01+00:00,241.3231,10.1,11.14,47.84626,-54.09684
2023-11-03 19:39:01+00:00,235.2681,10.08,11.14,47.84626,-54.09684
2023-11-03 19:49:01+00:00,228.2764,10.0,11.14,47.84626,-54.09684
2023-11-03 19:59:01+00:00,225.3464,10.0,11.14,47.84626,-54.09684
2023-11-03 20:09:01+00:00,224.8581,10.0,11.14,47.84626,-54.09684
2023-11-03 20:19:00+00:00,220.8381,10.0,11.14,47.84626,-54.09684
2023-11-03 20:29:00+00:00,216.3865,10.0,11.14,47.84626,-54.09684
2023-11-03 20:39:00+00:00,216.2764,9.98,11.14,47.84626,-54.09684
2023-11-03 20:49:00+00:00,217.2647,9.96,11.14,47.84626,-54.09684
2023-11-03 20:59:00+00:00,216.3548,9.9,11.14,47.84626,-54.09684
2023-11-03 21:09:00+00:00,216.5531,9.9,11.14,47.84626,-54.09684
2023-11-03 21:19:00+00:00,218.5881,9.9,11.06,47.84626,-54.09684
2023-11-03 21:29:00+00:00,220.7548,9.9,11.06,47.84626,-54.09684
2023-11-03 21:39:00+00:00,222.7914,9.8,11.06,47.84626,-54.09684
2023-11-03 21:49:00+00:00,225.3664,9.77,11.06,47.84626,-54.09684
2023-11-03 21:59:00+00:00,229.7964,9.7,11.06,47.84626,-54.09684
2023-11-03 22:09:00+00:00,233.9497,9.7,11.06,47.84626,-54.09684
2023-11-03 22:19:00+00:00,234.7281,9.7,11.06,47.84626,-54.09684
2023-11-03 22:29:00+00:00,236.0914,9.7,11.06,47.84626,-54.09684
2023-11-03 22:39:00+00:00,237.6247,9.7,11.06,47.84626,-54.09684
2023-11-03 22:49:00+00:00,239.9064,9.7,11.06,47.84626,-54.09684
2023-11-03 22:59:00+00:00,241.1414,9.7,11.06,47.84626,-54.09684
2023-11-03 23:09:00+00:00,241.4414,9.68,11.06,47.84626,-54.09684
2023-11-03 23:19:00+00:00,240.1397,9.6,11.06,47.84626,-54.09684
2023-11-03 23:29:00+00:00,240.9064,9.6,11.06,47.84626,-54.09684
2023-11-03 23:39:00+00:00,244.6131,9.6,11.06,47.84626,-54.09684
2023-11-03 23:49:00+00:00,248.1631,9.6,11.06,47.84626,-54.09684
2023-11-03 23:59:00+00:00,248.2531,9.6,11.06,47.84626,-54.09684
